Time,TemperatureF,DewpointF,PressureIn,WindDirection,WindDirectionDegrees,WindSpeedMPH,WindSpeedGustMPH,Humidity,HourlyPrecipIn,Conditions,Clouds,dailyrainin,SoftwareType,DateUTC
2013-08-28 00:15:00,67.0,65.0,29.88,WSW,257,0.0,0.0,94,0.00,,,0.00,weatherlink.com 1.10,2013-08-28 04:15:00,
2013-08-28 00:31:00,66.6,65.0,29.88,West,265,0.0,1.0,95,0.00,,,0.00,weatherlink.com 1.10,2013-08-28 04:31:00,
2013-08-28 00:47:00,67.0,66.0,29.88,West,263,0.0,1.0,96,0.00,,,0.00,weatherlink.com 1.10,2013-08-28 04:47:00,
2013-08-28 01:04:00,67.2,65.0,29.87,West,263,1.0,1.0,94,0.00,,,0.00,weatherlink.com 1.10,2013-08-28 05:04:00,
2013-08-28 01:20:00,66.8,65.0,29.87,West,263,0.0,0.0,95,0.00,,,0.00,weatherlink.com 1.10,2013-08-28 05:20:00,
2013-08-28 01:36:00,66.7,66.0,29.86,West,263,0.0,0.0,96,0.00,,,0.00,weatherlink.com 1.10,2013-08-28 05:36:00,
2013-08-28 01:52:00,66.4,65.0,29.86,West,263,0.0,1.0,96,0.00,,,0.00,weatherlink.com 1.10,2013-08-28 05:52:00,
2013-08-28 02:08:00,66.2,65.0,29.86,West,263,0.0,0.0,96,0.00,,,0.00,weatherlink.com 1.10,2013-08-28 06:08:00,
2013-08-28 02:25:00,65.7,65.0,29.85,West,263,0.0,0.0,96,0.00,,,0.00,weatherlink.com 1.10,2013-08-28 06:25:00,
2013-08-28 02:42:00,65.3,64.0,29.86,West,263,0.0,0.0,97,0.00,,,0.00,weatherlink.com 1.10,2013-08-28 06:42:00,
2013-08-28 02:58:00,65.3,65.0,29.86,West,263,0.0,0.0,98,0.00,,,0.00,weatherlink.com 1.10,2013-08-28 06:58:00,
2013-08-28 03:14:00,65.2,65.0,29.85,West,263,0.0,1.0,98,0.00,,,0.00,weatherlink.com 1.10,2013-08-28 07:14:00,
2013-08-28 03:30:00,65.0,64.0,29.85,West,263,0.0,1.0,98,0.00,,,0.00,weatherlink.com 1.10,2013-08-28 07:30:00,
2013-08-28 03:47:00,64.5,64.0,29.85,West,263,0.0,1.0,98,0.00,,,0.00,weatherlink.com 1.10,2013-08-28 07:47:00,
2013-08-28 04:03:00,64.5,64.0,29.85,West,263,0.0,1.0,98,0.00,,,0.00,weatherlink.com 1.10,2013-08-28 08:03:00,
2013-08-28 04:19:00,64.0,63.0,29.86,West,263,0.0,1.0,98,0.00,,,0.00,weatherlink.com 1.10,2013-08-28 08:19:00,
2013-08-28 04:36:00,64.9,65.0,29.86,West,263,1.0,1.0,99,0.00,,,0.00,weatherlink.com 1.10,2013-08-28 08:36:00,
2013-08-28 04:52:00,65.1,65.0,29.86,West,263,0.0,1.0,99,0.00,,,0.00,weatherlink.com 1.10,2013-08-28 08:52:00,
2013-08-28 05:08:00,64.5,64.0,29.86,West,263,0.0,0.0,98,0.00,,,0.00,weatherlink.com 1.10,2013-08-28 09:08:00,
2013-08-28 05:24:00,64.4,64.0,29.86,West,263,0.0,0.0,98,0.00,,,0.00,weatherlink.com 1.10,2013-08-28 09:24:00,
2013-08-28 05:40:00,63.9,63.0,29.87,West,263,0.0,0.0,98,0.00,,,0.00,weatherlink.com 1.10,2013-08-28 09:40:00,
2013-08-28 05:57:00,63.7,63.0,29.87,West,263,0.0,1.0,99,0.00,,,0.00,weatherlink.com 1.10,2013-08-28 09:57:00,
2013-08-28 06:13:00,64.6,64.0,29.88,West,263,0.0,0.0,99,0.00,,,0.00,weatherlink.com 1.10,2013-08-28 10:13:00,
2013-08-28 06:29:00,64.0,64.0,29.88,West,263,0.0,0.0,99,0.00,,,0.00,weatherlink.com 1.10,2013-08-28 10:29:00,
2013-08-28 06:45:00,64.1,64.0,29.87,West,263,0.0,1.0,99,0.00,,,0.00,weatherlink.com 1.10,2013-08-28 10:45:00,
2013-08-28 07:01:00,64.4,64.0,29.87,West,263,0.0,0.0,99,0.00,,,0.00,weatherlink.com 1.10,2013-08-28 11:01:00,
2013-08-28 07:18:00,65.6,66.0,29.87,West,263,0.0,1.0,100,0.00,,,0.00,weatherlink.com 1.10,2013-08-28 11:18:00,
2013-08-28 07:34:00,66.4,66.0,29.88,SE,136,0.0,0.0,100,0.00,,,0.00,weatherlink.com 1.10,2013-08-28 11:34:00,
2013-08-28 07:50:00,66.7,66.0,29.88,SE,136,0.0,0.0,99,0.00,,,0.00,weatherlink.com 1.10,2013-08-28 11:50:00,
2013-08-28 08:06:00,66.4,66.0,29.88,WNW,290,0.0,0.0,98,0.00,,,0.00,weatherlink.com 1.10,2013-08-28 12:06:00,
2013-08-28 08:23:00,66.1,65.0,29.89,WNW,294,0.0,1.0,97,0.00,,,0.00,weatherlink.com 1.10,2013-08-28 12:23:00,
2013-08-28 08:39:00,66.7,66.0,29.89,WNW,294,0.0,0.0,98,0.00,,,0.00,weatherlink.com 1.10,2013-08-28 12:39:00,
2013-08-28 08:55:00,68.2,67.0,29.89,WNW,294,0.0,1.0,97,0.00,,,0.00,weatherlink.com 1.10,2013-08-28 12:55:00,
2013-08-28 09:12:00,69.0,68.0,29.89,NW,321,0.0,1.0,95,0.00,,,0.00,weatherlink.com 1.10,2013-08-28 13:12:00,
2013-08-28 09:28:00,70.1,68.0,29.89,WNW,301,0.0,2.0,93,0.00,,,0.00,weatherlink.com 1.10,2013-08-28 13:28:00,
2013-08-28 09:44:00,71.4,68.0,29.89,NW,305,0.0,1.0,90,0.00,,,0.00,weatherlink.com 1.10,2013-08-28 13:44:00,
2013-08-28 10:00:00,72.6,69.0,29.89,NNW,341,2.0,2.0,88,0.00,,,0.00,weatherlink.com 1.10,2013-08-28 14:00:00,
2013-08-28 10:17:00,73.9,68.0,29.89,NNE,15,3.0,3.0,83,0.00,,,0.00,weatherlink.com 1.10,2013-08-28 14:17:00,
2013-08-28 10:33:00,74.9,70.0,29.89,NNW,348,1.0,4.0,84,0.00,,,0.00,weatherlink.com 1.10,2013-08-28 14:33:00,
2013-08-28 10:49:00,75.5,70.0,29.89,NNW,341,2.0,4.0,84,0.00,,,0.00,weatherlink.com 1.10,2013-08-28 14:49:00,
2013-08-28 11:05:00,76.4,70.0,29.88,NNW,343,2.0,4.0,80,0.00,,,0.00,weatherlink.com 1.10,2013-08-28 15:05:00,
2013-08-28 11:22:00,77.3,71.0,29.88,NNW,330,1.0,6.0,80,0.00,,,0.00,weatherlink.com 1.10,2013-08-28 15:22:00,
2013-08-28 11:38:00,79.0,70.0,29.88,NNW,347,2.0,5.0,75,0.00,,,0.00,weatherlink.com 1.10,2013-08-28 15:38:00,
2013-08-28 11:54:00,79.7,70.0,29.87,WSW,253,2.0,6.0,72,0.00,,,0.00,weatherlink.com 1.10,2013-08-28 15:54:00,
2013-08-28 12:10:00,80.8,72.0,29.87,NW,316,0.0,5.0,74,0.00,,,0.00,weatherlink.com 1.10,2013-08-28 16:10:00,
2013-08-28 12:27:00,80.8,69.0,29.86,WNW,282,1.0,3.0,68,0.00,,,0.00,weatherlink.com 1.10,2013-08-28 16:27:00,
2013-08-28 12:44:00,79.6,70.0,29.86,West,279,1.0,1.0,72,0.00,,,0.00,weatherlink.com 1.10,2013-08-28 16:44:00,
2013-08-28 13:01:00,81.3,71.0,29.86,NNE,12,2.0,6.0,70,0.00,,,0.00,weatherlink.com 1.10,2013-08-28 17:01:00,
2013-08-28 13:18:00,78.9,70.0,29.87,NW,323,0.0,4.0,73,0.00,,,0.00,weatherlink.com 1.10,2013-08-28 17:18:00,
2013-08-28 13:34:00,77.3,70.0,29.86,SSW,208,4.0,6.0,77,0.00,,,0.00,weatherlink.com 1.10,2013-08-28 17:34:00,
2013-08-28 13:50:00,74.1,68.0,29.86,WSW,256,2.0,9.0,82,0.00,,,0.00,weatherlink.com 1.10,2013-08-28 17:50:00,
2013-08-28 14:24:00,76.6,69.0,29.85,North,9,2.0,3.0,77,0.00,,,0.00,weatherlink.com 1.10,2013-08-28 18:24:00,
2013-08-28 14:40:00,75.2,69.0,29.86,WNW,287,0.0,4.0,82,0.00,,,0.00,weatherlink.com 1.10,2013-08-28 18:40:00,
2013-08-28 14:56:00,76.8,70.0,29.85,West,261,2.0,3.0,79,0.00,,,0.00,weatherlink.com 1.10,2013-08-28 18:56:00,
2013-08-28 15:12:00,78.2,70.0,29.85,West,279,0.0,1.0,75,0.00,,,0.00,weatherlink.com 1.10,2013-08-28 19:12:00,
2013-08-28 15:29:00,78.0,71.0,29.84,WNW,298,1.0,2.0,78,0.00,,,0.00,weatherlink.com 1.10,2013-08-28 19:29:00,
2013-08-28 15:45:00,79.8,70.0,29.84,NW,308,0.0,2.0,71,0.00,,,0.00,weatherlink.com 1.10,2013-08-28 19:45:00,
2013-08-28 16:02:00,79.9,70.0,29.84,NW,309,0.0,2.0,72,0.00,,,0.00,weatherlink.com 1.10,2013-08-28 20:02:00,
2013-08-28 16:18:00,80.8,69.0,29.84,West,275,1.0,2.0,68,0.00,,,0.00,weatherlink.com 1.10,2013-08-28 20:18:00,
2013-08-28 16:34:00,81.2,70.0,29.84,West,275,1.0,1.0,69,0.00,,,0.00,weatherlink.com 1.10,2013-08-28 20:34:00,
2013-08-28 16:50:00,82.9,72.0,29.84,West,279,1.0,3.0,69,0.00,,,0.00,weatherlink.com 1.10,2013-08-28 20:50:00,
2013-08-28 17:06:00,82.9,71.0,29.84,West,273,0.0,2.0,67,0.00,,,0.00,weatherlink.com 1.10,2013-08-28 21:06:00,
2013-08-28 17:23:00,82.0,72.0,29.84,West,275,1.0,1.0,71,0.00,,,0.00,weatherlink.com 1.10,2013-08-28 21:23:00,
2013-08-28 17:39:00,80.9,71.0,29.85,West,268,0.0,1.0,73,0.00,,,0.00,weatherlink.com 1.10,2013-08-28 21:39:00,
2013-08-28 17:55:00,80.0,72.0,29.85,West,267,0.0,1.0,76,0.00,,,0.00,weatherlink.com 1.10,2013-08-28 21:55:00,
2013-08-28 18:12:00,79.6,70.0,29.86,West,259,0.0,1.0,73,0.00,,,0.00,weatherlink.com 1.10,2013-08-28 22:12:00,
2013-08-28 18:28:00,76.7,69.0,29.87,West,270,2.0,4.0,78,0.00,,,0.00,weatherlink.com 1.10,2013-08-28 22:28:00,
2013-08-28 18:44:00,74.1,68.0,29.87,WSW,253,2.0,3.0,81,0.00,,,0.00,weatherlink.com 1.10,2013-08-28 22:44:00,
2013-08-28 19:00:00,72.7,67.0,29.87,West,277,0.0,2.0,83,0.00,,,0.00,weatherlink.com 1.10,2013-08-28 23:00:00,
2013-08-28 19:16:00,72.2,67.0,29.88,WNW,285,0.0,1.0,83,0.00,,,0.00,weatherlink.com 1.10,2013-08-28 23:16:00,
2013-08-28 19:33:00,71.4,67.0,29.88,WNW,285,0.0,1.0,85,0.00,,,0.00,weatherlink.com 1.10,2013-08-28 23:33:00,
2013-08-28 19:49:00,71.0,68.0,29.89,WSW,253,0.0,3.0,89,0.00,,,0.00,weatherlink.com 1.10,2013-08-28 23:49:00,
2013-08-28 20:05:00,70.6,67.0,29.89,West,275,0.0,0.0,89,0.00,,,0.00,weatherlink.com 1.10,2013-08-29 00:05:00,
2013-08-28 20:21:00,69.9,67.0,29.89,West,272,1.0,2.0,89,0.00,,,0.00,weatherlink.com 1.10,2013-08-29 00:21:00,
2013-08-28 20:38:00,69.5,66.0,29.89,WSW,245,1.0,3.0,90,0.00,,,0.00,weatherlink.com 1.10,2013-08-29 00:38:00,
2013-08-28 20:54:00,69.4,66.0,29.90,WNW,298,1.0,3.0,90,0.00,,,0.00,weatherlink.com 1.10,2013-08-29 00:54:00,
2013-08-28 21:10:00,69.5,67.0,29.90,WNW,286,0.0,3.0,91,0.00,,,0.00,weatherlink.com 1.10,2013-08-29 01:10:00,
2013-08-28 21:26:00,69.7,67.0,29.92,West,268,0.0,3.0,91,0.00,,,0.00,weatherlink.com 1.10,2013-08-29 01:26:00,
2013-08-28 21:43:00,68.6,66.0,29.96,NNE,19,9.0,11.0,93,0.01,,,0.01,weatherlink.com 1.10,2013-08-29 01:43:00,
2013-08-28 21:59:00,64.0,62.0,29.95,WSW,251,2.0,8.0,94,0.46,,,0.46,weatherlink.com 1.10,2013-08-29 01:59:00,
2013-08-28 22:15:00,63.2,62.0,29.97,ESE,107,2.0,5.0,97,0.62,,,0.62,weatherlink.com 1.10,2013-08-29 02:15:00,
2013-08-28 22:31:00,62.8,62.0,29.97,WSW,250,5.0,5.0,96,0.67,,,0.67,weatherlink.com 1.10,2013-08-29 02:31:00,
2013-08-28 22:48:00,62.6,62.0,29.96,West,263,0.0,3.0,97,0.62,,,0.71,weatherlink.com 1.10,2013-08-29 02:48:00,
2013-08-28 23:04:00,62.8,62.0,29.97,West,262,0.0,3.0,97,0.18,,,0.75,weatherlink.com 1.10,2013-08-29 03:04:00,
2013-08-28 23:20:00,62.8,62.0,29.98,NW,306,1.0,2.0,97,0.13,,,0.77,weatherlink.com 1.10,2013-08-29 03:20:00,
2013-08-28 23:37:00,62.7,62.0,29.96,WSW,257,0.0,3.0,97,0.08,,,0.78,weatherlink.com 1.10,2013-08-29 03:37:00,
2013-08-28 23:53:00,62.7,62.0,29.95,WNW,282,0.0,5.0,98,0.06,,,0.79,weatherlink.com 1.10,2013-08-29 03:53:00,